Tracking 29892 objects as of 21-Nov-2024
HD Live streaming from Space Station
objects crossing your sky now

ICEYE-X34

Track ICEYE-X34 now!
10-day predictions


NORAD ID: 58294
Int'l Code: 2023-174AQ
Perigee: 498.9 km
Apogee: 511.3 km
Inclination: 97.4 °
Period: 94.6 minutes
Semi major axis: 6876 km
RCS: Unknown
Launch date: November 11, 2023
Source: United States (US)
Launch site: AIR FORCE WESTERN TEST RANGE (AFWTR)
Your satellite tracking list
Your tracking list is empty




NASA's NSSDC Master Catalog

Two Line Element Set (TLE):
1 58294U 23174AQ  24325.46935748  .00022745  00000-0  97834-3 0  9991
2 58294  97.4420  38.9038 0009038  39.9872 320.2029 15.22608657 57490
Source of the keplerian elements: AFSPC